Terug naar catalogus

STARLINK-36244

ActiefCommunicatieSSO
NORAD 68145·PAYLOAD·🇺🇸 United States

Gelanceerd Mar 13, 2026 vanaf Vandenberg Space Force Base

Loading…

Volgende Passages (komende 24 uur)

TLE

VersSource: CelesTrak SupGP

Epoch: Sep 14, 2026, 21:17 UTC

1 68145C 26049D   26257.88729167  .00028674  00000+0  89025-3 0  2575
2 68145  97.2835 277.9303 0001781 109.4015 167.0243 15.33419616    11

Volg STARLINK-36244 in realtime met AllMySat

Download on the App Store